Regional Weather Roundup
Issued by NWS

Home | Current Version | Previous Version | Graphics & Text | Print | Product List | Glossary Off
Versions: 1 2 3 4 5 6 7 8 9 10 11 12 13 14 15 16 17 18 19 20 21 22 23 24 25 26 27 28 29 30 31 32 33 34 35 36 37 38 39 40 41 42 43 44 45 46 47 48 49 50

000
ASUS43 KMKX 221422
RWRWI

WISCONSIN REGIONAL WEATHER ROUNDUP
NATIONAL WEATHER SERVICE MILWAUKEE/SULLIVAN WI
900 AM CDT WED OCT 22 2014

NOTE: "FAIR" INDICATES FEW OR NO CLOUDS BELOW 12,000 FEET WITH NO
SIGNIFICANT WEATHER AND/OR OBSTRUCTIONS TO VISIBILITY.

WIZ001-002-006>008-014>016-023>028-221500-
NORTHWEST WISCONSIN

CITY           SKY/WX    TMP DP  RH WIND       PRES   REMARKS
SUPERIOR ARPT  SUNNY     38  37  98 CALM      30.23R
ASHLAND        SUNNY     40  35  83 S5        30.28R
HAYWARD        SUNNY     40  34  79 SE7       30.26S
SIREN          SUNNY     42  35  76 S14G20    30.22F
CUMBERLAND     SUNNY     37  34  87 SE8       30.25S WCI  31
RICE LAKE      SUNNY     39  35  84 SE10      30.28S WCI  32
CHETEK         SUNNY     38  35  89 SE7       30.28S WCI  32
LADYSMITH      SUNNY     38  35  89 SE7       30.31S WCI  33
EAU CLAIRE     SUNNY     40  34  79 SE7       30.28F
MENOMONIE      SUNNY     39  37  91 SE8       30.28S WCI  33
NEW RICHMOND   SUNNY     42  36  80 SE9G16    30.23S
OSCEOLA        SUNNY     42  37  83 SE10      30.24F
$$

WIZ003>005-009-010-017-018-221500-
NORTH CENTRAL WISCONSIN

CITY           SKY/WX    TMP DP  RH WIND       PRES   REMARKS
MANITOWISH WTR SUNNY     37  36  96 S6        30.30S WCI  32
ARBOR VITAE    SUNNY     39  36  89 S8        30.30F WCI  34
WOODRUFF       SUNNY     39  36  89 S8        30.30F WCI  34
RHINELANDER    SUNNY     33  31  92 SE5       30.33S WCI  29
EAGLE RIVER    FOG       32  32 100 CALM      30.32F VSB 1/2
LAND O LAKES   FOG       33  33 100 S3        30.32F VSB 3/4
PHILLIPS       SUNNY     36  33  90 S8        30.30S WCI  30
TOMAHAWK       SUNNY     33  32  96 CALM      30.32F
MEDFORD        SUNNY     35  33  93 S5        30.32R WCI  31
MERRILL        SUNNY     33  32  94 CALM      30.33F
$$

WIZ029-030-035-036-043>047-221500-
CENTRAL WISCONSIN

CITY           SKY/WX    TMP DP  RH WIND       PRES   REMARKS
WAUSAU         SUNNY     33  32  96 SE7       30.33F WCI  27
MOSINEE        SUNNY     34  34 100 E6        30.34F WCI  29
MARSHFIELD     MOSUNNY   36  34  92 SE5       30.32S WCI  32
STEVENS POINT  SUNNY     32  31  98 CALM      30.35F
WAUPACA        SUNNY     34  33  95 N3        30.38S
WAUTOMA        PTSUNNY   34  32  92 CALM      30.37S
WISC RAPIDS    SUNNY     36  34  92 E5        30.35F WCI  32
CAMP DOUGLAS   SUNNY     32  32 100 N1        30.34R
$$

WIZ011>013-019>022-031-037>040-048>050-221500-
NORTHEAST WISCONSIN

CITY           SKY/WX    TMP DP  RH WIND       PRES   REMARKS
ANTIGO         FOG       32  32 100 CALM      30.35S VSB 1/4
SHAWANO        CLOUDY    36  34  92 N3        30.39R
OCONTO         SUNNY     33  33  99 CALM      30.39R
STURGEON BAY   SUNNY     43  36  75 SE3       30.38F
GREEN BAY      FOG       32  32 100 CALM      30.39R VSB<1/4
MANITOWOC      SUNNY     40  37  89 CALM      30.38S
APPLETON       MOSUNNY   36  34  93 NE6       30.37R WCI  31
CLINTONVILLE   CLOUDY    32  32 100 CALM      30.38S FOG
OSHKOSH        SUNNY     39  36  89 CALM      30.36S
$$

WIZ032>034-041-042-053>061-221500-
SOUTHWEST WISCONSIN

CITY           SKY/WX    TMP DP  RH WIND       PRES   REMARKS
LA CROSSE      SUNNY     42  36  79 SE7       30.31F
SPARTA         SUNNY     33  33  96 CALM      30.33F
VIROQUA        SUNNY     38  38  99 SE8       30.31F WCI  33
BOSCOBEL       FOG       34  33  96 CALM      30.35S VSB<1/4
PRAIRIE DU CHI SUNNY     38  35  89 E5        30.33S WCI  34
PLATTEVILLE    SUNNY     39  37  93 CALM      30.34R
$$

WIZ056-057-062-063-064-067-068-221500-
SOUTH CENTRAL WISCONSIN

CITY           SKY/WX    TMP DP  RH WIND       PRES   REMARKS
REEDSBURG      SUNNY     31  31  99 CALM      30.34S
BARABOO/DELLS  SUNNY     33  32  96 E5        30.34F WCI  29
LONE ROCK      FOG       35  31  85 E3        30.36R VSB<1/4
MINERAL POINT  SUNNY     43  37  81 SE6       30.33R
MADISON        MOSUNNY   36  33  89 CALM      30.36S
MIDDLETON      CLOUDY    34  34 100 CALM      30.36F VSB<1/4
WATERTOWN      SUNNY     32  32 100 CALM      30.36S
MONROE         SUNNY     39  37  93 E3        30.34F
JANESVILLE     SUNNY     34  32  93 CALM      30.35S
$$

WIZ051-052-058>065-066-070>072-221500-
SOUTHEAST WISCONSIN

CITY           SKY/WX    TMP DP  RH WIND       PRES   REMARKS
MILWAUKEE      MOSUNNY   43  36  76 NW5       30.37R
WAUKESHA       NOT AVBL
MILWAUKEE/TIMM SUNNY     37  34  87 CALM      30.38R
RACINE         MOSUNNY   49  42  77 SE7       30.38R
BURLINGTON     SUNNY     35  35 100 CALM      30.36S
KENOSHA        MOSUNNY   44  41  89 CALM      30.36R FOG
FOND DU LAC    MOSUNNY   34  32  92 CALM      30.37R
SHEBOYGAN      CLOUDY    39  36  89 CALM      30.37R
WEST BEND      PTSUNNY   32  30  93 CALM      30.37S
JUNEAU         SUNNY     35  33  95 CALM      30.37S
$$

LSZ147-162-221500-
LAKE SUPERIOR

STATION/POSITION TIME  TEMP    WIND        PRES    WAVE
                       AIR SEA DIR/SP/G            HT/PER
                 (UTC) (F)     (DEG/KT/KT) (MB)    (FT/S)
W MID LAKE BUOY  1350   45 46  180/ 12/ 16 1026.0F   2/ 4
DEVILS ISLAND    1400   45     170/  6/ 11 1025.4F
PORT WING        1340   42     160/  6/ 10 1024.0S
SAXON HARBOR     1300   33        CALM     1025.1
$$

LMZ867-665-643>646-221500-
LAKE MICHIGAN

STATION/POSITION TIME  TEMP    WIND        PRES    WAVE
                       AIR SEA DIR/SP/G            HT/PER
                 (UTC) (F)     (DEG/KT/KT) (MB)    (FT/S)
CHAMBERS ISLAND  1300   44     130/  3/  5 1028.8R
N MID LAKE BUOY  1350   44 51  120/  6/  8 1029.9R   1
NORTHPORT PIER   1300   42     150/  2/  5 1028.8R
SISTER BAY       1228             CALM       N/A
ALGOMA LAKESHORE 1341          330/  6/  6   N/A
KEWAUNEE LAKESHO 1400   38      CALM  /  2 1027.8R
SHEBOYGAN LAKESH 1400   46 49  110/  7/  9 1029.1R
PORT WASHINGTON  1340   43     260/  4/  4 1029.1R
ATWATER BUOY     1400   49     120/  8/ 10 1029.2R
MILWAUKEE LAKESH 1400   46     280/  2/  2   N/A
S MID LAKE BUOY  1350   47 54   90/  8/ 10 1028.6R   2/ 4
KENOSHA   LAKESH 1400   47     190/  3/  5 1028.1R
$$

TC  - TEMPERATURE IN CELSIUS
VSB - VISIBILITY IN STATUTE MILES
WCI - WIND CHILL INDEX
HX  - HEAT INDEX




USA.gov is the U.S. government's official web portal to all federal, state and local government web resources and services.